Hourly Data Report for April 21, 2012

HALIFAX STANFIELD INT'L A
NOVA SCOTIA

44°52'48.060" N
63°30'00.050" W
145.40 m
8202250
71395
YHZ

Download Data

Hourly Data (April 2012)
Hourly Data Report for April 21, 2012
TIME
LST
Temp Definition
°C
Dew Point Definition
°C
Rel Hum Definition
%
Precip. Amount Definition
mm

Wind Dir Definition
10's deg

Wind Spd Definition
km/h
Visibility Definition
km
Stn Press Definition
kPa
Hmdx Definition


Wind Chill Definition


Weather Definition


00:00 3.9 2.1 88   18 17 24.1 100.02     Mainly Clear
01:00 5.2 1.9 79   16 13 24.1 99.97     Mainly Clear
02:00 4.2 2.0 86   20 19 24.1 99.96     Mainly Clear
03:00 4.4 1.1 79   19 19 24.1 99.97     Mainly Clear
04:00 4.4 3.6 95   18 17 24.1 99.95     Mainly Clear
05:00 4.4 4.0 97   18 19 2.0 99.95     Fog
06:00 5.2 5.1 99   18 20 0.6 99.96     Fog
07:00 6.0 5.9 99   18 22 0.4 99.97     Fog
08:00 7.6 7.2 97   17 15 19.3 99.98     Mostly Cloudy
09:00 13.4 7.8 69   18 26 24.1 99.96     Mainly Clear
10:00 14.7 7.9 64   16 37 24.1 99.91     Mainly Clear
11:00 16.3 8.4 59   19 33 24.1 99.92     Mainly Clear
12:00 16.4 8.5 60   21 48 24.1 99.86     Mainly Clear
13:00 17.3 9.1 59   18 43 24.1 99.85     Mostly Cloudy
14:00 16.8 9.2 61   18 43 24.1 99.83     Mainly Clear
15:00 16.2 9.0 62   17 32 24.1 99.74     Mainly Clear
16:00 14.5 7.8 64   16 35 24.1 99.71     Mainly Clear
17:00 13.6 8.2 70   18 35 24.1 99.72     Mainly Clear
18:00 11.1 7.5 78   17 22 24.1 99.68     Mostly Cloudy
19:00 9.7 7.3 85   17 26 19.3 99.70     Rain Showers
20:00 9.4 7.8 90   16 24 24.1 99.69     Cloudy
21:00 8.8 8.5 98   16 26 24.1 99.70     Cloudy
22:00 9.1 8.8 98   16 28 16.1 99.71     Cloudy
23:00 9.5 9.3 99   18 22 2.4 99.71     Rain Showers, Fog

Notes on Data Quality.

Legend

  • E = Estimated
  • M = Missing
  • NA = Not Available*
  • [empty] = Indicates an unobserved value
Date modified: